Volver al catálogo

FENGYUN 1C DEB

ActivoSSO
NORAD 30850·DEBRIS·🇨🇳 China

Lanzado May 10, 1999 desde Taiyuan Satellite Launch Center

Loading…

Próximos Pases (próximas 24 horas)

TLE

ActualizadoSource: Space-Track

Época: Sep 14, 2026, 12:58 UTC

1 30850U 99025AWL 26257.54089016  .00002353  00000-0  11001-2 0  9994
2 30850  98.3834 112.7575 0108732 117.7273 273.3035 14.18090268997052

Sigue FENGYUN 1C DEB en tiempo real con AllMySat

Download on the App Store